This is the latest recevied weather packets stored in our database for station/object OE5RBO. If no packets are shown the sender has not sent any weather packets the latest 10 day(s).
| Time | Temp. | Humidity | Pressure | Rain* | Wind** | Luminosity | Snow |
|---|---|---|---|---|---|---|---|
| 1777784204 | 7.78° C | 92% | 1015.8 hPa | 0 mm | - | - | - |
| 1777783604 | 7.78° C | 91% | 1015.7 hPa | 0 mm | - | - | - |
| 1777783004 | 7.78° C | 90% | 1015.8 hPa | 0 mm | - | - | - |
| 1777782403 | 7.78° C | 89% | 1015.7 hPa | 0 mm | - | - | - |
| 1777781803 | 7.78° C | 90% | 1015.6 hPa | 0 mm | - | - | - |
| 1777781203 | 7.78° C | 90% | 1015.7 hPa | 0 mm | - | - | - |
| 1777780602 | 7.78° C | 90% | 1015.6 hPa | 0 mm | - | - | - |
| 1777780002 | 7.78° C | 90% | 1015.6 hPa | 0 mm | - | - | - |
| 1777779402 | 7.78° C | 91% | 1015.4 hPa | 0 mm | - | - | - |
| 1777778801 | 7.78° C | 92% | 1015.5 hPa | 0 mm | - | - | - |
| 1777778201 | 7.78° C | 89% | 1015.4 hPa | 0 mm | - | - | - |
| 1777777601 | 7.78° C | 90% | 1015.4 hPa | 0 mm | - | - | - |
| 1777777000 | 7.78° C | 89% | 1015.5 hPa | 0 mm | - | - | - |
| 1777776400 | 8.33° C | 88% | 1015.5 hPa | 0 mm | - | - | - |
| 1777775800 | 8.89° C | 86% | 1015.6 hPa | 0 mm | - | - | - |
| 1777775199 | 9.44° C | 84% | 1015.7 hPa | 0 mm | - | - | - |
| 1777774598 | 8.89° C | 85% | 1015.7 hPa | 0 mm | - | - | - |
| 1777773998 | 8.89° C | 85% | 1015.8 hPa | 0 mm | - | - | - |
| 1777772798 | 9.44° C | 83% | 1015.9 hPa | 0 mm | - | - | - |
| 1777772197 | 10° C | 83% | 1015.9 hPa | 0 mm | - | - | - |
| 1777771597 | 10.56° C | 79% | 1015.9 hPa | 0 mm | - | - | - |
| 1777770996 | 10.56° C | 79% | 1016.1 hPa | 0 mm | - | - | - |
| 1777769796 | 10.56° C | 80% | 1016.2 hPa | 0 mm | - | - | - |
| 1777767995 | 11.11° C | 76% | 1016.4 hPa | 0 mm | - | - | - |
| 1777766794 | 11.11° C | 75% | 1016.5 hPa | 0 mm | - | - | - |
* Rain since midnight (hover to see other rain measurements)
** Current wind speed in m/s (hover to see current wind gust speed)